Location: ??
(34.9170°N, 135.5016°E)
Time: 09:57:21
(UTC+00:00)

Tiros 1 despin weight - Visible Passes

Search period start: 01 March 2021 00:00
Search period end: 11 March 2021 00:00
Orbit: 593 x 642 km, 48.2° (Epoch: 28 February)

Date Brightness Start Highest point End Pass type
(mag) Time Alt. Az. Time Alt. Az. Time Alt. Az.
01 Mar ? 19:22:16 19° N 19:23:27 20° NNE 19:26:57 10° ENE visible
01 Mar ? 21:01:03 10° NW 21:05:43 62° NE 21:10:22 10° ESE visible
02 Mar ? 19:38:00 20° NNW 19:40:12 28° NNE 19:44:15 10° E visible
03 Mar ? 18:16:46 13° NE 18:16:46 13° NE 18:17:32 10° NE visible
03 Mar ? 19:53:50 19° NW 19:56:50 44° NNE 20:01:19 10° ESE visible
04 Mar ? 18:32:42 19° NE 18:32:42 19° NE 18:34:54 10° ENE visible
04 Mar ? 20:09:45 18° NW 20:13:18 80° NE 20:17:59 10° SE visible
05 Mar ? 18:48:44 31° NE 18:48:44 31° NE 18:52:08 10° E visible
05 Mar ? 20:25:49 14° WNW 20:29:36 52° SW 20:34:08 10° SSE visible
06 Mar ? 19:04:56 52° ENE 19:04:56 52° ENE 19:09:03 10° ESE visible
06 Mar ? 20:42:01 10° WNW 20:45:46 25° SW 20:49:35 10° S visible
07 Mar ? 19:21:17 70° SSE 19:21:17 70° SSE 19:25:31 10° SE visible
08 Mar ? 19:37:49 36° SSW 19:37:49 36° SSW 19:41:25 10° SSE visible
09 Mar ? 11:17:58 10° SW 11:19:04 17° SW 11:19:04 17° SW visible
09 Mar ? 19:54:29 17° SSW 19:54:29 17° SSW 19:56:26 10° S visible
10 Mar ? 09:54:21 10° S 09:57:34 20° SE 09:58:44 18° ESE visible
10 Mar ? 11:34:19 10° WSW 11:35:51 21° WSW 11:35:51 21° WSW visible
